Weather Roundup
Issued by NWS

Home | Current Version | Previous Version | Text Only | Print | Product List | Glossary On
Versions: 1 2 3 4 5 6 7 8 9 10 11 12 13 14 15 16 17 18 19 20 21 22 23 24 25 26 27 28 29 30 31 32 33 34 35 36 37 38 39 40 41 42 43 44 45 46 47 48 49 50
000
NZUS93 KARX 250810
HRRWXR

CURRENT HOURLY OBSERVATIONS ACROSS
MUCH OF THE UPPER MISSISSIPPI VALLEY
NATIONAL WEATHER SERVICE LA CROSSE WI
300 AM CDT SAT APR 25 2015


...SOUTHEAST MINNESOTA...


CITY           SKY/WX    TMP DP  RH WIND       PRES   REMARKS
ROCHESTER      CLOUDY    41  37  86 E17       29.77F
ROCHESTER/MAYO CLOUDY    41  40  94 E10G18    29.78F
WINONA         NOT AVBL
AUSTIN         CLOUDY    43  37  81 E16G23    29.73F
ALBERT LEA     CLOUDY    43  39  87 E15       29.73F
DODGE CENTER   CLOUDY    41  39  93 E16       29.76F
PRESTON        CLOUDY    40  35  81 E15       29.78F WCI  32
OWATONNA       MOCLDY    43  37  81 E13       29.76S
FARIBAULT      CLOUDY    43  39  87 E10       29.77S
$$

...ELSEWHERE IN MINNESOTA...


CITY           SKY/WX    TMP DP  RH WIND       PRES   REMARKS
MINNEAPOLIS    CLOUDY    44  39  82 E17       29.81S
INTNL FALLS    CLOUDY    37  20  50 SE8       29.93R WCI  31
DULUTH         CLOUDY    36  24  62 E14       29.90S WCI  27
RED WING       CLOUDY    43  37  81 E10       29.81R
REDWOOD FALLS  CLOUDY    44  40  85 E9        29.73S
MANKATO        CLOUDY    45  36  70 E16       29.74F
WORTHINGTON    CLOUDY    45  39  81 E15       29.68F
FAIRMONT       CLOUDY    45  18  33 E15       29.69F
$$

...SOUTHWEST WISCONSIN...


CITY           SKY/WX    TMP DP  RH WIND       PRES   REMARKS
LA CROSSE      CLOUDY    43  35  73 E7        29.84S
PRAIRIE DU CHI CLOUDY    42  33  71 E17G23    29.79S
BOSCOBEL       CLOUDY    42  35  76 NE7       29.83S
LONE ROCK      CLOUDY    41  34  76 E17       29.84S
PLATTEVILLE    CLOUDY    40  36  83 E20G25    29.78F WCI  31
FORT MC COY    CLOUDY    40  36  86 E10       29.86S WCI  33
CAMP DOUGLAS   CLOUDY    39  39 100 E14       29.86S WCI  30
VIROQUA        CLOUDY    38  36  91 E17       29.81S WCI  29
WIS DELLS      CLOUDY    37  34  87 E9        29.86S WCI  31
$$

...ELSEWHERE IN WISCONSIN...


CITY           SKY/WX    TMP DP  RH WIND       PRES   REMARKS
MILWAUKEE      CLOUDY    39  33  79 E12       29.89F WCI  32
MADISON        CLOUDY    40  32  73 MISG      29.86F
GREEN BAY      CLOUDY    41  23  48 NE7       29.93F
EAU CLAIRE     CLOUDY    42  35  76 E10       29.86S
BLACK RVR FLS  CLOUDY    40  38  95 E9G16     29.86S WCI  34
MEDFORD        CLOUDY    38  28  69 E7        29.89S WCI  32
WAUSAU         CLOUDY    38  25  59 E10       29.89F WCI  31
WIS RAPIDS     CLOUDY    37  33  85 E8        29.90F WCI  31
MARSHFIELD     CLOUDY    38  34  85 E10       29.88F WCI  31
RICE LAKE      CLOUDY    42  33  69 E10       29.88S
$$

...NORTHEAST IOWA...


CITY           SKY/WX    TMP DP  RH WIND       PRES   REMARKS
DECORAH        CLOUDY    41  36  81 E14       29.77R
MASON CITY     CLOUDY    43  39  86 E13       29.72S
CHARLES CITY   CLOUDY    43  41  93 E17       29.74S
OELWEIN        CLOUDY    43  39  87 E17G25    29.73S
$$

...ELSEWHERE IN IOWA...


CITY           SKY/WX    TMP DP  RH WIND       PRES   REMARKS
DES MOINES     CLOUDY    51  43  74 E12       29.57F
IOWA CITY      LGT RAIN  44  41  89 E15       29.70F FOG
FORT DODGE     CLOUDY    46  39  76 E16       29.63F
$$

...NORTHERN ILLINOIS...


CITY           SKY/WX    TMP DP  RH WIND       PRES   REMARKS
CHICAGO-OHARE  CLOUDY    43  38  82 E15       29.83F
CHICAGO-MIDWAY CLOUDY    46  40  79 E15       29.82F
MOLINE         LGT RAIN  44  40  85 NE14      29.72S FOG
ROCKFORD       CLOUDY    43  35  73 E16       29.82F
PEORIA         LGT RAIN  53  42  66 E7        29.71F
$$

NOTE: "FAIR" INDICATES FEW OR NO CLOUDS BELOW 12,000 FEET WITH NO
SIGNIFICANT WEATHER AND/OR OBSTRUCTIONS TO VISIBILITY. WIND
SPEEDS ARE IN MILES-PER-HOUR.



USA.gov is the U.S. government's official web portal to all federal, state and local government web resources and services.